This demonstration page uses our WeatherBlox Daily Observations layout. Learn more.

Left ArrowRight Arrow

Hourly Observations for November 15, 2015

Temp ( °F °C ) Dew Point ( °F °C ) Humidity (%) Winds ( mph kmh ) Pressure ( in mb ) Visibility ( mi km ) Precip ( " mm )
12:53 am 00:53 Mostly Clear 50 10 43 6.1 77 77 E 3 6 29.73 1007 7 11 0.00 0.00
1:53 am 01:53 Mostly Clear 48 8.9 43 6.1 83 83 NW 3 6 29.70 1006 7 11 0.00 0.00
2:53 am 02:53 Cloudy with Haze 50 10 45 7.2 83 83 W 7 11 29.67 1005 6 10 0.00 0.00
3:53 am 03:53 Cloudy with Haze 51 10.6 45 7.2 80 80 NW 6 9 29.63 1004 6 10 0.00 0.00
4:17 am 04:17 Cloudy with Light Rain 50 10 46 7.8 86 86 W 8 13 29.68 1005 3 4 0.02 0.51
4:33 am 04:33 Cloudy with Rain 50 10 46 7.8 86 86 W 8 13 29.68 1005 2 3 0.06 1.52
4:53 am 04:53 Cloudy with Rain 50 10 47 8.3 89 89 SW 8 13 29.63 1003 2 3 0.13 3.30
5:00 am 05:00 Cloudy with Rain 50 10 46 8 88 88 SW 6 9 29.68 1005 2 3 0.00 0.00
5:14 am 05:14 Cloudy with Heavy Rain 50 10 46 8 88 88 WSW 6 9 29.65 1004 2 3 0.00 0.00
5:18 am 05:18 Cloudy with Rain 50 10 46 8 88 88 SW 7 11 29.65 1004 2 3 0.00 0.00
5:21 am 05:21 Cloudy with Light Rain 50 10 47 8.3 89 89 SW 7 11 29.65 1004 3 5 0.14 3.56
5:30 am 05:30 Cloudy with Rain 50 10 46 8 88 88 SSW 8 13 29.65 1004 4 6 0.00 0.00
5:53 am 05:53 Cloudy with Rain 51 10.6 47 8.3 86 86 undefined N/A 29.61 1003 4 6 0.22 5.59
6:08 am 06:08 Cloudy with Light Rain 52 11 48 9 88 88 SSW 13 20 29.62 1003 6 10 0.00 0.00
6:53 am 06:53 Cloudy with Rain 52 11.1 48 8.9 86 86 SSW 10 17 29.61 1003 7 11 0.11 2.79
7:24 am 07:24 Cloudy with Rain 52 11 48 9 88 88 WSW 9 15 29.62 1003 5 8 0.00 0.00
7:41 am 07:41 Cloudy with Rain 52 11.1 48 8.9 86 86 SSW 8 13 29.62 1003 3 4 0.15 3.81
7:44 am 07:44 Cloudy with Light Rain 52 11 48 9 88 88 SSW 9 15 29.62 1003 3 5 0.00 0.00
7:51 am 07:51 Cloudy with Light Rain 52 11 48 9 88 88 SSW 10 17 29.68 1005 5 8 0.17 4.32
7:53 am 07:53 Cloudy with Light Rain 52 11.1 48 8.9 86 86 SW 7 11 29.63 1004 6 10 0.17 4.32
8:49 am 08:49 Cloudy with Light Rain 52 11 48 9 88 88 S 5 7 29.68 1005 9 14 0.04 1.02
8:53 am 08:53 Cloudy with Light Rain 52 11.1 48 8.9 86 86 SSW 3 6 29.66 1004 10 16 0.04 1.02
9:04 am 09:04 Cloudy with Light Rain 52 11 48 9 88 88 Calm 29.71 1006 8 13 0.00 0.00
9:53 am 09:53 Cloudy with Light Rain 52 11.1 47 8.3 83 83 VRB 5 7 29.70 1006 10 16 0.02 0.51
10:53 am 10:53 Cloudy 51 10.6 43 6.1 74 74 E 6 9 29.74 1007 10 16 0.03 0.76
11:53 am 11:53 Cloudy 52 11.1 45 7.2 77 77 E 8 13 29.77 1008 10 16 0.00 0.00
12:53 pm 12:53 Cloudy 51 10.6 43 6.1 74 74 E 5 7 29.78 1009 10 16 0.00 0.00
1:53 pm 13:53 Cloudy 54 12.2 43 6.1 67 67 ENE 5 7 29.79 1009 10 16 0.00 0.00
2:53 pm 14:53 Cloudy with Light Rain 52 11.1 43 6.1 72 72 NNE 5 7 29.82 1010 10 16 0.01 0.25
3:53 pm 15:53 Sunny 51 10.6 45 7.2 80 80 WNW 6 9 29.85 1011 10 16 0.00 0.03
4:53 pm 16:53 Mostly Cloudy 52 11.1 39 3.9 61 61 VRB 6 9 29.88 1012 10 16 0.00 0.00
5:53 pm 17:53 Partly Cloudy 50 10 35 1.7 57 57 NW 7 11 29.91 1013 10 16 0.00 0.00
6:53 pm 18:53 Clear 50 10 33 0.6 52 52 NW 6 9 29.95 1014 10 16 0.00 0.00
7:53 pm 19:53 Clear 49 9.4 32 0 52 52 NW 10 17 29.97 1015 10 16 0.00 0.00
8:53 pm 20:53 Clear 48 8.9 31 -0.6 52 52 NW 7 11 30.01 1016 10 16 0.00 0.00
9:53 pm 21:53 Clear 45 7.2 32 0 61 61 N 6 9 30.04 1017 10 16 0.00 0.00
10:53 pm 22:53 Clear 44 6.7 32 0 63 63 NNW 3 6 30.06 1018 10 16 0.00 0.00
11:53 pm 23:53 Clear 42 5.6 31 -0.6 65 65 N 3 6 30.10 1019 10 16 0.00 0.00

Powered by AerisWeather